Weather in Vitimsky

Russia / Irkutsk Oblast     58°13′13″N   113°15′29″E
temp.,
°C
wind,
m/s
gust,
m/s
humid.,
%
clouds,
%
prec.,
mm/h
press.,
hPa
HPBL,
m
5 march, fri
fri523:00−35sse119941 0.0 104419
02:00−35ese1110042 0.0 104519
05:00−36se129916 0.0 104419
08:00−36se22958 0.0 104420
11:00−29se238649 0.0 1041270
14:00−25se238167 0.0 1037363
17:00−25se229046 0.0 1035199
20:00−29ese229036 0.0 103519
6 march, sat
sat623:00−29ese229049 0.0 103321
02:00−27se229272 0.0 103166
05:00−26se2292100 0.0 102890
08:00−25se2294100 0.0 1026112
11:00−21se2392100 0.1 1022218
14:00−17se2382100 0.1 1019312
17:00−16se2296100 0.6 1018214
20:00−17se1298100 1.4 101971
7 march, sun
sun723:00−16sse2397100 1.2 1019109
02:00−17s2298100 2.1 102064
05:00−19sse1298100 0.3 101927
08:00−17se2298100 0.4 101876
11:00−13sse2395100 0.4 1015266
14:00−10sse3593100 1.6 1011445
17:00−8sse2793100 1.1 1008574
20:00−9ssw3596100 3.2 1008262
8 march, mon
mon823:00−10ssw3596100 1.6 1008139
02:00−9ssw3496100 3.1 1008134
05:00−11ssw2397100 1.1 100779
08:00−10sw2396100 3.1 1009166
11:00−10w71387100 1.7 10101170
14:00−10w81386100 2.1 10131105
17:00−11wnw61287100 0.3 10161219
20:00−13w299699 0.4 1021354
9 march, tue
tue923:00−14sw2297100 0.3 102342
02:00−16sw2298100 0.6 102531
05:00−19sse129998 0.1 102520
08:00−19se229896 0.1 102358
11:00−15se3390100 0.0 1017264
14:00−12se2486100 0.0 1012363
17:00−11se2494100 0.5 1010266
20:00−10s3796100 1.8 1011334